Rutland, VT

2:45 PM EST on December 17, 2017 (GMT -0500)
Rutland State

Weather History for KRUT - December, 2011

Change the Weather History Date:

Saturday, December 10, 2011

  Actual Average Record
Temperature  
Mean Temperature 32 °F -  
Max Temperature 36 °F - 66 °F (1966)
Min Temperature 27 °F - -5 °F (1949)
Degree Days  
Heating Degree Days 33    
Month to date heating degree days 295  
Since 1 July heating degree days 1572  
Cooling Degree Days 0    
Month to date cooling degree days 0  
Year to date cooling degree days 348  
Moisture  
Dew Point 20 °F    
Average Humidity 64    
Maximum Humidity 89    
Minimum Humidity 39    
Precipitation  
Precipitation 0.00 in - 0.94 in (2008)
Month to date precipitation 0.87  
Year to date precipitation 32.44  
Sea Level Pressure  
Sea Level Pressure 30.23 in    
Wind  
Wind Speed 6 mph (WNW)    
Max Wind Speed 13 mph    
Max Gust Speed 17 mph    
Visibility 10 miles    
Events      
T = Trace of Precipitation, MM = Missing Value Source: NWS Daily Summary

Daily Weather History Graph

Daily Weather History Graph

Search for Another Location

Airport or City:

Trip Planner

Search our weather history database for the weather conditions in past years. The results will help you decide how hot, cold, wet, or windy it might be!

Date:

Astronomy

Dec. 10, 2011 Rise Set
Actual Time 7:13 AM EST 4:15 PM EST
Civil Twilight 6:41 AM EST 4:47 PM EST
Nautical Twilight 6:05 AM EST 5:23 PM EST
Astronomical Twilight 5:30 AM EST 5:58 PM EST
Moon 4:26 PM EST (12/10) 7:11 AM EST (12/10)
Length of Visible Light 10h 06m
Length of Day
9h 01m
Full, 100% of the Moon is Illuminated
Dec 10
Full
Dec 17
Last Quarter
Dec 24
New
Jan 1
First Quarter
Jan 9
Full

Hourly Weather History & Observations

Time (EST) Temp. Windchill Dew Point Humidity Pressure Visibility Wind Dir Wind Speed Gust Speed Precip Events Conditions
12:15 AM 35.6 °F 32.8 °F 28.4 °F 75% 30.16 in 10.0 mi SW 3.5 mph - N/A   Overcast
12:35 AM 35.6 °F - 28.4 °F 75% 30.16 in 10.0 mi Calm Calm - N/A   Overcast
12:55 AM 35.6 °F - 28.4 °F 75% 30.16 in 10.0 mi Calm Calm - N/A   Overcast
1:15 AM 35.6 °F 31.7 °F 28.4 °F 75% 30.15 in 10.0 mi South 4.6 mph - N/A   Overcast
1:35 AM 35.6 °F 31.7 °F 28.4 °F 75% 30.15 in 10.0 mi SSW 4.6 mph - N/A   Overcast
2:15 AM 35.6 °F - 28.4 °F 75% 30.15 in 10.0 mi Calm Calm - N/A   Overcast
2:35 AM 33.8 °F 29.6 °F 30.2 °F 87% 30.15 in 9.0 mi SSW 4.6 mph - N/A   Overcast
2:55 AM 33.8 °F 29.6 °F 30.2 °F 87% 30.15 in 5.0 mi SSW 4.6 mph - N/A   Overcast
3:15 AM 33.8 °F 28.6 °F 30.2 °F 87% 30.15 in 5.0 mi South 5.8 mph - N/A   Overcast
3:35 AM 33.8 °F 28.6 °F 30.2 °F 87% 30.14 in 9.0 mi South 5.8 mph - N/A   Overcast
3:55 AM 33.8 °F 29.6 °F 30.2 °F 87% 30.13 in 10.0 mi South 4.6 mph - N/A   Overcast
4:15 AM 33.8 °F 29.6 °F 30.2 °F 87% 30.13 in 10.0 mi South 4.6 mph - N/A   Overcast
4:55 AM 33.8 °F 30.8 °F 30.2 °F 87% 30.13 in 10.0 mi South 3.5 mph - N/A   Overcast
5:15 AM 33.8 °F 29.6 °F 30.2 °F 87% 30.14 in 10.0 mi SSW 4.6 mph - N/A   Overcast
5:35 AM 33.8 °F 29.6 °F 30.2 °F 87% 30.14 in 10.0 mi South 4.6 mph - N/A   Overcast
5:55 AM 33.8 °F 30.8 °F 30.2 °F 87% 30.15 in 10.0 mi SW 3.5 mph - N/A   Overcast
6:15 AM 33.8 °F 30.8 °F 30.2 °F 87% 30.16 in 10.0 mi WNW 3.5 mph - N/A   Overcast
6:35 AM 33.8 °F 30.8 °F 28.4 °F 81% 30.17 in 10.0 mi NW 3.5 mph - N/A   Overcast
7:15 AM 33.8 °F 28.6 °F 24.8 °F 70% 30.18 in 10.0 mi West 5.8 mph - N/A   Overcast
7:35 AM 33.8 °F 27.7 °F 23.0 °F 65% 30.19 in 10.0 mi WNW 6.9 mph - N/A   Overcast
7:55 AM 33.8 °F 29.6 °F 24.8 °F 70% 30.20 in 10.0 mi NNW 4.6 mph - N/A   Overcast
8:35 AM 32.0 °F 24.8 °F 21.2 °F 64% 30.22 in 10.0 mi NW 8.1 mph 17.3 mph N/A   Overcast
8:55 AM 30.2 °F 20.8 °F 24.8 °F 80% 30.23 in 10.0 mi North 11.5 mph 17.3 mph N/A   Overcast
9:15 AM 30.2 °F 21.3 °F 24.8 °F 80% 30.24 in 10.0 mi North 10.4 mph - N/A   Overcast
9:35 AM 30.2 °F 21.3 °F 23.0 °F 75% 30.24 in 10.0 mi NNW 10.4 mph 17.3 mph N/A   Overcast
9:55 AM 30.2 °F 22.6 °F 23.0 °F 75% 30.25 in 10.0 mi NNW 8.1 mph - N/A   Scattered Clouds
10:15 AM 30.2 °F 21.3 °F 21.2 °F 69% 30.25 in 10.0 mi NNW 10.4 mph - N/A   Mostly Cloudy
10:35 AM 30.2 °F 22.6 °F 19.4 °F 64% 30.26 in 10.0 mi NW 8.1 mph - N/A   Mostly Cloudy
11:15 AM 30.2 °F 21.3 °F 15.8 °F 55% 30.24 in 10.0 mi North 10.4 mph - N/A   Partly Cloudy
11:35 AM 30.2 °F 21.3 °F 10.4 °F 44% 30.24 in 10.0 mi WNW 10.4 mph 17.3 mph N/A   Partly Cloudy
11:55 AM 32.0 °F 23.0 °F 10.4 °F 41% 30.24 in 10.0 mi NW 11.5 mph 17.3 mph N/A   Clear
12:15 PM 32.0 °F 24.8 °F 10.4 °F 41% 30.23 in 10.0 mi NNW 8.1 mph - N/A   Clear
12:35 PM 32.0 °F 24.8 °F 10.4 °F 41% 30.23 in 10.0 mi NW 8.1 mph 17.3 mph N/A   Clear
12:55 PM 32.0 °F 23.0 °F 10.4 °F 41% 30.23 in 10.0 mi NW 11.5 mph 16.1 mph N/A   Partly Cloudy
1:15 PM 32.0 °F 24.8 °F 12.2 °F 44% 30.24 in 10.0 mi WNW 8.1 mph - N/A   Mostly Cloudy
1:55 PM 32.0 °F 22.5 °F 12.2 °F 44% 30.24 in 10.0 mi WNW 12.7 mph - N/A   Overcast
2:15 PM 30.2 °F 20.8 °F 12.2 °F 47% 30.25 in 10.0 mi WNW 11.5 mph - N/A   Overcast
2:35 PM 30.2 °F 21.9 °F 14.0 °F 51% 30.25 in 10.0 mi NW 9.2 mph - N/A   Mostly Cloudy
2:55 PM 32.0 °F 24.2 °F 12.2 °F 44% 30.25 in 10.0 mi NW 9.2 mph - N/A   Scattered Clouds
3:15 PM 30.2 °F 21.9 °F 12.2 °F 47% 30.26 in 10.0 mi NW 9.2 mph - N/A   Mostly Cloudy
3:35 PM 30.2 °F 21.9 °F 12.2 °F 47% 30.26 in 10.0 mi NW 9.2 mph - N/A   Mostly Cloudy
3:55 PM 30.2 °F 21.9 °F 12.2 °F 47% 30.26 in 10.0 mi NW 9.2 mph - N/A   Mostly Cloudy
4:35 PM 28.4 °F 20.4 °F 12.2 °F 51% 30.27 in 10.0 mi NW 8.1 mph - N/A   Partly Cloudy
4:55 PM 28.4 °F 22.2 °F 12.2 °F 51% 30.28 in 10.0 mi NW 5.8 mph - N/A   Clear
5:15 PM 28.4 °F 20.4 °F 14.0 °F 55% 30.28 in 10.0 mi NW 8.1 mph - N/A   Scattered Clouds
5:35 PM 28.4 °F 21.2 °F 14.0 °F 55% 30.29 in 10.0 mi NNW 6.9 mph - N/A   Scattered Clouds
5:55 PM 28.4 °F 21.2 °F 14.0 °F 55% 30.30 in 10.0 mi NW 6.9 mph - N/A   Scattered Clouds
6:15 PM 28.4 °F 23.3 °F 15.8 °F 59% 30.31 in 10.0 mi NNW 4.6 mph - N/A   Scattered Clouds
6:35 PM 28.4 °F 21.2 °F 14.0 °F 55% 30.32 in 10.0 mi NW 6.9 mph - N/A   Mostly Cloudy
7:15 PM 28.4 °F 22.2 °F 15.8 °F 59% 30.33 in 10.0 mi WNW 5.8 mph - N/A   Overcast
7:35 PM 28.4 °F 23.3 °F 14.0 °F 55% 30.34 in 10.0 mi NW 4.6 mph - N/A   Overcast
7:55 PM 28.4 °F 22.2 °F 15.8 °F 59% 30.35 in 10.0 mi NW 5.8 mph - N/A   Overcast
8:15 PM 28.4 °F 23.3 °F 14.0 °F 55% 30.35 in 10.0 mi NW 4.6 mph - N/A   Overcast
8:35 PM 28.4 °F 22.2 °F 14.0 °F 55% 30.36 in 10.0 mi NW 5.8 mph - N/A   Overcast
8:55 PM 28.4 °F 21.2 °F 14.0 °F 55% 30.36 in 10.0 mi NW 6.9 mph - N/A   Overcast
9:35 PM 28.4 °F 23.3 °F 15.8 °F 59% 30.37 in 10.0 mi WNW 4.6 mph - N/A   Overcast
9:55 PM 26.6 °F 21.2 °F 15.8 °F 64% 30.37 in 10.0 mi West 4.6 mph - N/A   Overcast
10:15 PM 26.6 °F 20.0 °F 17.6 °F 69% 30.37 in 10.0 mi WSW 5.8 mph - N/A   Overcast
10:35 PM 26.6 °F 18.2 °F 19.4 °F 74% 30.38 in 10.0 mi West 8.1 mph - N/A   Overcast
10:55 PM 26.6 °F 21.2 °F 19.4 °F 74% 30.38 in 10.0 mi West 4.6 mph - N/A   Overcast
11:15 PM 26.6 °F 20.0 °F 19.4 °F 74% 30.38 in 10.0 mi West 5.8 mph - N/A   Overcast
11:55 PM 26.6 °F 21.2 °F 19.4 °F 74% 30.39 in 10.0 mi West 4.6 mph - N/A   Overcast